NOAA 16 DEB, 41256

Orbit data source: Space-Track

NOAA 16 DEB, 41256 is space debris in SSO originally from a launch on Thu, 21 Sep 2000 UTC launched from the Air Force Western Test Range (AFWTR). Debris objects in space refer to the collection of defunct objects orbiting the Earth. Examples of debris include non-operational satellites, rocket bodies, and fragments generated from explosions, collisions, or faulty payload assembly.

Loading next visibility...
Identifier
41256, 2000-055FG
Orbit
SSO
Country
Flag of USUS
Related business
Manufacturer
Unknown
Mission
Spacecraft
Bus & Motor
Unknown
Mass
Unknown
Launch date (UTC)
2000-09-21 (25 years ago)
Launch vehicle
Unknown
Launch site
Air Force Western Test Range (AFWTR)
Object type
Payload
Rocket body
Debris
Shape & HBR
Unknown
Radar Cross Section
Small (<0.1 m²)

Expand to show TLE details & history
Last TLE update: 1 day ago

TLE from 1 day ago
0 NOAA 16 DEB
1 41256U 00055FG  25258.91919457  .00010653  00000-0  27769-2 0  9993
2 41256  99.0956 138.8746 0012908 264.5001  95.4719 14.49656486504325
Epoch: 2025-09-15T22:03Z
TLE epoch observation values (Epoch: 2025-09-15T22:03:38.41Z)
Latitude
0.00003°
Longitude
172.84761°
Altitude
730.599 km
Speed
7.489 km/s
True Right ascension
09h 15m 29s
True Declination
0° 00' 00"
Sunlit
Object was in daylight at epoch
Visualization orbit readout
Latitude
Unknown
Longitude
Unknown
Altitude
Unknown
Speed
Unknown
Apparent Right ascension
Unknown
Apparent Declination
Unknown
Sunlit
N/A
Visualization observer readout
Local Sidereal Time
16:16:25
Azimuth
Unknown
Elevation
Unknown
Doppler factor
Unknown
Orbital elements
Apogee altitude
733.076 km
Perigee altitude
714.742 km
Semi-major axis
7,102.046 km
Eccentricity
0.00129
Inclination
99.0956°
RAAN
138.8746°
Arg. of periapsis
264.5001°
True anomaly
95.61912°
Mean anomaly
95.4719°
Eccentric anomaly
95.54551°
Mean motion
3.62634 °/min
Orbital period
99.27 mins
BSTAR
0.0027769
Loading maneuver chart data...
Computing Atmospheric mass density...
Loading historical data...
Loading historical data...
Loading historical data...
Loading historical data...
Loading historical data...
Loading historical data...
Loading historical data...

Documentation

Showing up to 5 results
|